EHI
0 0 0 0 0 0 0 0 0 0 0 0 0 0 0 0 0 0 0 0 0 0 0 0 0 0 0 0 0 0 0 0 0 0 0 0 0 0 0 0 0 0 0
0 0 0 0 0 0 0 0 0 0 0 0 0 0 0 0 0 0 0 0 0 0 0 0 0 0 0 0 0 0 0 0 0 0 0 0 0 0 0 0 0 0 0
0 0 0 0 0 0 0 0 0 0 0 0 0 0 0 0 0 0 0 0 0 0 0 0 0 0 0 0 0 0 0 0 0 0 0 0 0 0 0 0 0 0 0
0 0 0 0 0 0 0 0 0 0 0 0 0 0 0 0 0 0 0 0 0 0 0 0 0 0 0 0 0 0 0 0 0 0 0 0 0 0 0 0 0 0 0
0 0 0 0 0 0 0 0 0 0 0 0 0 0 0 0 0 0 0 0 0 0 0 0 0 0 0 0 0 0 0 0 0 0 0 0 0 0 0 0 0 0 0
0 0 0 0 0 0 0 0 0 0 0 0 0 0 0 0 0 0 0 0 0 0 0 0 0 0 0 0 0 0 0 0 0 0 0 0 0 0 0 0 0 0 0
0 0 0 0 0 0 0 0 0 0 0 0 0 0 0 0 0 0 0 0 0 0 0 0 0 0 0 0 0 0 0 0 0 0 0 0 0 0 0 0 0 0 0
0 0 0 0 0 0 0 0 0 0 0 0 0 0 0 0 0 0 0 0 0 0 0 0 0 0 0 0 0 0 0 0 0 0 0 0 0 0 0 0 0 0 0
0 0 0 0 0 0 0 0 0 0 0 0 0 0 0 0 0 0 0 0 0 0 0 0 0 0 0 0 0 0 0 0 0 0 0 0 0 0 0 0 0 0 0
0 0 0 0 0 0 0 0 0 0 0 0 0 0 0 0 0 0 0 0 0 0 0 0 0 0 0 0 0 0 0 0 0 0 0 0 0 0 0 0 0 0 0
0 0 0 0 0 0 0 0 0 0 0 0 0 0 0 0 0 0 0 0 0 0 0 0 0 0 0 0 0 0 0 0 0 0 0 0 0 0 0 0 0 0 0
0 0 0 0 0 0 0 0 0 0 0 0 0 0 0 0 0 0 0 0 0 0 0 0 0 0 0 0 0 0 0 0 0 0 0 0 0 0 0 0 0 0 0
0 0 0 0 0 0 0 0 0 0 0 0 0 0 0 0 0 0 0 0 0 0 0 0 0 0 0 0 0 0 0 0 0 0 0 0 0 0 0 0 0 0 0
0 0 0 0 0 0 0 0 0 0 0 0 0 0 0 0 0 0 0 0 0 0 0 0 0 0 0 0 0 0 0 0 0 0 0 0 0 0 0 0 0 0 0
0 0 0 0 0 0 0 0 0 0 0 0 0 0 0 0 0 0 0 0 0 0 0 0 0 0 0 0 0 0 0 0 0 0 0 0 0 0 0 0 0 0 0
0 0 0 0 0 0 0 0 0 0 0 0 0 0 0 0 0 0 0 0 0 0 0 0 0 0 0 0 0 0 0 0 0 0 0 0 0 0 0 0 0 0 0
0 0 0 0 0 0 0 0 0 0 0 0 0 0 0 0 0 0 0 0 0 0 0 0 0 0 0 0 0 0 0 0 0 0 0 0 0 0 0 0 0 0 0
0 0 0 0 0 0 0 0 0 0 0 0 0 0 0 0 0 0 0 0 0 0 0 0 0 0 0 0 0 0 0 0 0 0 0 0 0 0 0 0 0 0 0
0 0 0 0 0 0 0 0 0 0 0 0 0 0 0 0 0 0 0 0 0 0 0 0 0 0 0 0 0 0 0 0 0 0 0 0 0 0 0 0 0 0 0
0 0 0 0 0 0 0 0 0 0 0 0 0 0 0 0 0 0 0 0 0 0 0 0 0 0 0 0 0 0 0 0 0 0 0 0 0 0 0 0 0 0 0
0 0 0 0 0 0 0 0 0 0 0 0 0 0 0 0 0 0 0 0 0 0 0 0 0 0 0 0 0 0 0 0 0 0 0 0 0 0 0 0 0 0 0
0 0 0 0 0 0 0 0 0 0 0 0 0 0 0 0 0 0 0 0 0 0 0 0 0 0 0 0 0 0 0 0 0 0 0 0 0 0 0 0 0 0 0
0 0 0 0 0 0 0 0 0 0 0 0 0 0 0 0 0 0 0 0 0 0 0 0 0 0 0 0 0 0 0 0 0 0 0 0 0 0 0 0 0 0 0
0 0 0 0 0 0 0 0 0 0 0 0 0 0 0 0 0 0 0 0 0 0 0 0 0 0 0 0 0 0 0 0 0 0 0 0 0 0 0 0 0 0 0
0 0 0 0 0 0 0 0 0 0 0 0 0 0 0 0 0 0 0 0 0 0 0 0 0 0 0 0 0 0 0 0 0 0 0 0 0 0 0 0 0 0 0
0 0 0 0 0 0 0 0 0 0 0 0 0 0 0 0 0 0 0 0 0 0 0 0 0 0 0 0 0 0 0 0 0 0 0 0 0 0 0 0 0 0 0
Wind_Speed
16 15 14 13 14 14 13 13 12 11 11 10 8 7 6 5 4 3 2 2 4 5 5 7 8 9 7 7 7 8 9 10 15 14 12 13 17 17 15 14 15 16 16
15 16 15 15 15 14 14 13 12 11 10 9 8 6 5 4 3 3 3 4 5 6 7 7 8 7 9 8 8 9 9 11 14 18 15 14 17 17 16 16 15 14 16
15 17 17 16 15 15 14 13 11 11 9 8 6 5 4 3 2 3 4 5 6 6 7 8 9 9 10 8 10 10 10 11 13 15 17 15 14 13 16 17 17 15 15
15 16 16 15 15 14 13 12 11 10 8 7 6 4 3 1 3 4 5 6 7 7 8 8 9 9 10 11 11 12 12 14 15 15 15 14 13 15 15 14 14 13 13
15 16 15 15 14 14 13 12 10 9 7 6 5 3 1 2 2 5 6 7 8 9 9 9 9 10 14 13 12 13 14 13 13 14 13 14 15 14 14 13 14 14 15
16 16 15 15 14 13 12 11 10 8 6 5 3 1 1 2 4 7 8 9 8 9 10 10 10 11 13 17 19 20 20 17 16 14 14 16 18 16 15 14 15 16 16
16 15 15 14 14 12 11 10 8 7 5 3 1 1 3 3 6 8 10 10 9 8 9 10 9 9 14 13 16 20 19 20 21 18 17 17 17 16 17 18 16 17 17
15 15 14 13 13 11 10 9 7 5 3 1 1 2 4 4 6 10 12 10 8 9 9 11 12 11 11 15 16 15 14 16 17 14 14 16 16 16 17 18 18 17 17
15 14 13 12 12 10 9 8 5 3 2 0 2 4 5 5 6 11 12 9 7 9 10 11 12 12 16 20 16 15 16 15 15 19 22 21 25 25 20 13 13 13 15
13 13 12 11 10 9 8 6 4 2 1 1 3 4 5 6 8 11 13 7 8 9 9 10 12 13 18 20 16 16 16 15 15 16 16 17 16 16 18 13 11 12 13
13 12 11 10 9 9 7 5 3 1 1 3 4 4 5 6 8 11 12 8 8 10 9 9 9 16 20 21 20 14 16 18 16 14 13 12 11 11 11 11 10 10 12
13 12 11 10 8 6 6 4 3 2 3 4 5 5 4 5 7 10 13 13 14 12 10 9 11 19 21 21 16 16 20 18 10 10 11 11 11 11 11 12 14 14 14
12 11 10 9 7 5 5 4 2 2 3 4 5 5 6 6 7 12 13 15 16 12 10 15 18 20 19 14 14 18 16 10 9 10 11 11 11 12 12 12 13 14 15
12 10 8 7 6 5 4 3 2 3 4 4 5 6 7 7 7 7 9 10 12 11 10 14 17 16 13 14 13 10 8 9 10 10 11 12 12 11 11 11 12 12 12
10 8 7 6 5 4 3 3 3 3 5 7 6 6 8 8 10 16 13 10 10 11 13 10 9 8 8 8 8 9 9 9 9 10 10 11 11 11 12 11 11 11 12
9 7 5 4 4 3 2 1 1 2 6 7 8 9 9 11 16 16 17 17 18 18 13 8 8 8 9 9 10 11 10 10 10 10 11 11 11 11 12 12 11 11 12
8 6 4 4 3 2 2 3 3 3 4 6 8 11 12 14 15 15 16 17 16 13 8 7 7 8 8 9 10 10 11 11 10 10 11 11 11 11 12 12 12 11 12
7 6 4 3 2 1 1 3 4 5 7 6 7 9 12 14 15 14 16 14 8 7 6 7 8 8 9 9 10 11 11 11 11 10 11 11 11 11 12 12 12 13 13
6 4 3 2 1 1 2 3 4 5 6 7 7 8 11 14 14 12 12 7 7 7 7 7 8 9 9 10 10 11 12 11 12 11 11 12 11 11 11 12 12 17 15
4 5 2 1 1 1 3 4 4 5 6 6 7 7 8 10 8 8 7 7 7 7 8 8 9 9 10 10 11 11 11 11 12 11 11 11 11 11 12 14 12 12 12
3 3 2 1 1 2 3 4 5 6 6 7 7 8 13 9 8 9 8 7 7 8 8 9 9 10 10 10 10 11 13 12 11 11 11 11 11 11 11 11 12 12 11
2 2 1 1 2 3 4 4 5 6 7 8 7 8 13 8 7 7 8 8 8 8 8 9 9 9 10 10 11 11 12 12 12 12 12 12 12 12 12 12 11 10 10
2 1 0 1 3 4 5 4 5 6 6 7 8 8 8 7 8 8 8 8 8 9 9 9 10 10 10 10 10 11 12 12 12 13 14 14 13 12 11 11 12 11 10
1 0 2 2 3 4 5 5 5 6 6 7 7 8 8 8 8 9 9 8 9 9 9 9 10 14 18 14 11 11 11 13 15 14 19 15 12 10 10 10 10 10 10
0 1 2 3 4 4 5 5 5 6 6 7 7 8 8 8 9 9 9 9 10 11 12 12 10 12 16 19 17 15 18 25 25 18 12 10 11 11 10 10 8 9 9
1 2 3 4 4 5 5 6 6 6 7 7 7 7 8 8 9 9 9 9 9 10 12 11 13 16 19 16 17 20 25 27 26 22 11 8 9 8 9 7 9 8 9
Wind_Direction
140 134 134 136 140 136 130 130 131 133 137 141 146 148 150 158 171 197 225 256 286 295 293 296 296 297 292 288 286 284 283 285 288 294 298 302 300 296 296 298 298 294 290
138 134 136 136 134 128 125 127 130 131 134 138 143 147 149 162 194 241 267 279 292 297 301 300 295 296 293 293 293 292 291 289 290 297 301 300 298 301 301 301 297 291 290
136 135 134 132 129 126 126 127 127 128 131 137 143 144 148 167 234 277 286 290 291 292 298 302 301 299 298 299 299 295 293 292 291 293 296 298 299 302 302 298 298 297 296
133 129 127 126 125 124 124 124 126 129 133 137 135 132 140 204 270 286 292 292 289 287 289 295 295 296 299 302 300 299 299 299 295 292 293 299 303 304 302 304 304 301 299
124 120 120 119 119 121 121 122 122 124 128 132 134 136 157 283 308 313 304 294 289 288 288 291 291 296 298 300 301 302 303 298 296 295 299 306 303 305 305 307 304 304 300
118 117 118 119 119 120 121 121 121 126 132 135 135 139 315 330 330 315 313 302 294 291 295 299 299 295 296 302 304 302 297 296 298 301 302 300 301 304 307 306 306 303 303
115 117 119 119 119 121 122 123 127 133 139 144 135 324 318 340 322 318 315 304 298 297 298 298 297 301 307 304 300 298 297 295 295 296 297 296 299 304 305 302 301 299 298
116 117 118 120 121 124 123 123 126 135 143 136 345 328 318 326 322 318 317 302 297 294 293 297 302 305 304 305 305 304 304 300 299 300 294 294 296 298 299 299 298 295 292
115 117 120 123 124 125 122 122 126 137 130 29 324 320 314 315 324 321 322 309 299 299 301 302 301 299 306 311 312 310 306 305 305 300 296 294 295 296 296 294 292 293 295
115 117 119 121 121 119 117 117 115 113 54 327 315 315 314 320 330 327 325 309 307 307 305 303 302 306 312 317 317 312 309 310 308 305 303 300 297 294 293 288 291 292 295
114 112 109 108 106 108 110 112 117 97 344 323 316 318 316 324 326 327 324 315 313 308 305 306 307 315 317 319 317 308 306 308 306 306 304 300 298 297 298 299 294 287 287
110 107 105 103 101 110 117 117 100 32 338 333 328 329 330 328 325 327 323 316 312 307 305 308 313 318 320 318 313 307 308 310 305 304 301 300 302 303 301 299 294 286 276
111 108 107 107 109 112 106 96 68 16 349 338 332 328 330 332 329 326 319 313 310 307 306 311 314 317 318 313 306 308 311 307 305 303 301 301 302 298 297 296 294 291 287
115 116 120 119 112 101 88 64 32 7 347 334 330 328 326 324 322 323 319 315 315 314 315 313 313 311 308 304 305 307 306 303 306 302 301 300 300 299 299 300 301 304 300
120 120 116 107 104 95 85 56 13 12 347 334 331 325 319 316 319 321 319 316 321 322 320 309 306 310 312 312 313 313 312 312 310 306 302 301 301 302 302 302 301 300 295
121 117 110 109 102 89 71 68 102 335 339 336 330 324 314 311 317 320 320 322 323 322 317 305 309 312 314 317 317 314 313 312 309 306 302 300 301 302 302 302 301 297 295
117 116 111 105 93 75 26 343 329 314 320 325 325 325 321 322 323 321 325 326 321 320 310 309 311 313 314 313 309 306 306 308 308 303 300 300 300 300 300 300 299 298 297
108 103 101 99 92 65 352 334 330 327 323 321 322 322 327 329 324 325 330 326 317 320 315 313 313 313 311 308 305 305 305 307 306 304 302 300 299 299 298 298 297 297 299
106 105 106 105 100 2 337 327 319 312 308 311 316 322 332 327 323 326 331 321 317 318 317 314 311 309 306 303 302 302 302 302 303 303 300 299 298 297 295 294 294 296 299
103 109 110 97 53 347 331 318 310 308 308 310 315 323 326 321 321 325 327 320 316 314 314 311 308 305 303 300 299 300 301 301 303 301 299 298 296 292 291 292 294 296 299
115 111 100 68 5 336 318 310 307 306 308 312 312 317 321 318 315 316 317 316 315 312 310 307 304 302 299 297 297 299 301 300 300 299 297 295 294 294 293 291 293 294 297
100 90 56 357 334 321 311 308 304 303 308 310 312 316 322 319 312 312 313 313 311 307 305 302 297 294 294 295 297 299 299 298 297 296 295 294 293 292 291 290 293 300 308
94 89 358 328 322 313 306 301 301 305 309 312 315 317 318 317 316 314 311 311 309 305 301 296 294 292 293 294 295 293 291 291 291 291 291 289 287 286 290 298 306 315 320
94 3 319 318 312 307 306 306 307 309 312 315 316 316 315 315 313 312 309 305 302 299 297 295 291 291 295 298 296 294 289 286 286 283 283 284 295 303 306 310 317 325 322
38 324 315 312 307 305 304 305 306 310 314 315 314 312 312 312 309 306 304 301 300 297 298 297 292 293 297 302 302 298 295 298 300 299 298 308 311 310 313 319 327 328 326
331 316 309 305 300 300 301 303 307 313 311 310 308 307 307 305 302 301 301 300 302 302 300 297 295 300 303 303 301 302 305 307 311 319 326 319 316 320 330 334 337 335 335